Location: Seven Kings
(51.5667°N, 0.1000°E)
Time: 02:55:54
(UTC+00:00)

CZ-4B R/B - Pass Details

Date: 29 October 2020
Orbit: 388 x 462 km, 97.6° (Epoch: 27 November)

Event Time Altitude Azimuth Distance (km) Brightness Sun altitude
Rises 17:05:56 0° 23° (NNE) 2,398 4.7 -5.1°
Reaches altitude 10° 17:08:12 10° 37° (NE) 1,511 3.6 -5.4°
Maximum altitude 17:10:58 26° 96° (E) 861 2.3 -5.8°
Drops below altitude 10° 17:13:39 10° 155° (SSE) 1,465 3.9 -6.2°
Sets 17:15:48 0° 169° (SSE) 2,307 5.0 -6.6°
